Regional Weather Roundup
Issued by NWS

Home | Current Version | Previous Version | Text Only | Print | Product List | Glossary On
Versions: 1 2 3 4 5 6 7 8 9 10 11 12 13 14 15 16 17 18 19 20 21 22 23 24 25 26 27
000
ASUS42 KTBW 260616
RWRFL
FLORIDA REGIONAL WEATHER ROUNDUP
NATIONAL WEATHER SERVICE TAMPA BAY RUSKIN FL
200 AM EDT FRI AUG 26 2016

NOTE: "FAIR" INDICATES FEW OR NO CLOUDS BELOW 12,000 FEET WITH NO
SIGNIFICANT WEATHER AND/OR OBSTRUCTIONS TO VISIBILITY.

FLZ001>010-012>015-112-114-115-260700-
PANHANDLE FLORIDA

CITY           SKY/WX    TMP DP  RH WIND       PRES   REMARKS
PENSACOLA      FAIR      78  73  84 N3        30.05F
PENSACOLA NAS  FAIR      75  73  93 NW3       30.04F
MILTON NAS     FAIR      74  72  93 N3        30.06
CRESTVIEW      FAIR      71  69  93 E3        30.08S FOG
DUKE FIELD     FAIR      73  71  93 NE5       30.05F
VALPARAISO     PTCLDY    76  71  83 N2        30.05S
MARY ESTHER    FAIR      75  71  88 NE5       30.04S
TRI COUNTY     FAIR      73  71  93 CALM      30.08S
PANAMA CITY    FAIR      72  70  93 N3        30.05F
TYNDALL AFB    FAIR      77  68  73 NE5       30.05F
APALACHICOLA   FAIR      76  70  82 NE6       30.04S

STATION/POSITION SKY/WX   TEMP    WIND        PRES    WAVE   SWELL
                          AIR SEA DIR/SP/G            HT/PER HT/PER
                          (F)     (DEG/KT/KT) (MB)    (FT/S) (FT/S)
30.1N   87.6W              86 86  130/  8/  8 1017.3F   2/ 7   2/ 7
29.2N   88.2W              85 86   90/ 12/ 16 1016.8R
28.8N   86.0W              86 86   70/ 14/ 16 1016.2F   3/ 6
PANAMA CITY BEAC           80 86   30/  3/  4 1018.3R
TOWER C                    85      90/ 16/ 17 1017.5R
28.5N   84.5W              86 86  100/ 17/ 19 1015.8F   4/ 5

$$
FLZ011-016>038-118-127-128-134-139-239-260700-
NORTH FLORIDA

CITY           SKY/WX    TMP DP  RH WIND       PRES   REMARKS
MARIANNA       FAIR      74  72  93 CALM      30.06S
TALLAHASSEE    FAIR      79  70  74 NE3       30.06S
PERRY          MOCLDY    77  71  82 CALM      30.07R
CROSS CITY     CLOUDY    75  72  88 NE6       30.04F
LAKE CITY      CLOUDY    75  73  94 CALM      30.07S
GAINESVILLE    FAIR      76  71  85 NE3       30.05F
JACKSONVILLE   MOCLDY    76  72  87 N5        30.05F
JAX NAS        MOCLDY    83  74  74 NE9       30.06F
FERNANDINA BEA FAIR      82  73  74 E8        30.05F
ST AUGUSTINE   FAIR      82  73  74 E15       30.05F
PALM COAST     LGT RAIN  78  77  96 E3        30.03F

STATION/POSITION SKY/WX   TEMP    WIND        PRES    WAVE   SWELL
                          AIR SEA DIR/SP/G            HT/PER HT/PER
                          (F)     (DEG/KT/KT) (MB)    (FT/S) (FT/S)
SHELL POINT                81      60/  4/ 10 1016.6
KEATON BEACH               76      40/  5/  8 1017.1F
CEDAR KEY                  79      50/  9/ 12 1017.2F
FERNANDINA                 81 87   60/  2/  5 1018.1R
30.7N   81.3W                 85                N/A     4/ 7
MAYPORT                    83 84   70/ 11/ 13 1018.2S
31.4N   80.9W              83 85   70/ 10/ 10 1018.2S   4/ 7   3/ 7
ST AUGUSTINE               82 83   70/ 14/ 15 1018.0F

$$
FLZ040-043>046-052-053-057-058-063-144-260700-
INTERIOR CENTRAL FLORIDA

CITY           SKY/WX    TMP DP  RH WIND       PRES   REMARKS
OCALA          FAIR      75  70  83 N3        30.04F
THE VILLAGES     N/A     77  75  94 CALM      29.93F
LEESBURG       FAIR      76  73  91 N6        30.03F
SANFORD        FAIR      79  75  87 N7        30.01F
ORLANDO EXEC   FAIR      79  75  87 N6        30.01F
ORLANDO INTL   MOCLDY    78  75  90 N8        30.01F
KISSIMMEE      FAIR      79  75  87 N6        30.01F
WINTER HAVEN   FAIR      77  72  84 N5        30.02F
OKEECHOBEE     FAIR      75  73  94 CALM      29.99R

$$
FLZ041-047-054-059-064-141-147-260700-
EAST CENTRAL FLORIDA

CITY           SKY/WX    TMP DP  RH WIND       PRES   REMARKS
DAYTONA BEACH  LGT RAIN  78  75  90 NE6       30.02F
DELAND         FAIR      77  75  94 N5        30.02F
JFK SPACE CTR  FAIR      78  75  88 NE5       29.99F
CAPE CANAVERAL FAIR      82  76  84 E5        29.98F
PATRICK AFB    FAIR      82  77  83 NE9       29.98S
MELBOURNE      FAIR      82  78  88 NE9       29.98F
VERO BEACH     FAIR      81  75  82 NE6       29.97F
FT PIERCE      FAIR      81  75  82 E8        29.96F

STATION/POSITION SKY/WX   TEMP    WIND        PRES    WAVE   SWELL
                          AIR SEA DIR/SP/G            HT/PER HT/PER
                          (F)     (DEG/KT/KT) (MB)    (FT/S) (FT/S)
28.5N   80.2W              82 82   90/ 10/ 12 1015.7F
TRIDENT PIER               82 85   50/  7/ 11 1016.2S
28.4N   80.5W                 84                N/A     3/ 9
27.5N   80.2W                 83                N/A     4/ 8

$$
FLZ050-056-061-142-242-148-248-149-249-151-251-155-255-
160-260-260700-
WEST CENTRAL FLORIDA

CITY           SKY/WX    TMP DP  RH WIND       PRES   REMARKS
BROOKSVILLE    FAIR      75  72  90 NE6       30.02F
ST PETE CLEARW FAIR      81  73  76 NE9       30.01S
TAMPA INTL     FAIR      80  72  76 NE6       30.02S
MACDILL AFB    FAIR      77  74  88 NE6       30.01R
ST PETERSBURG  FAIR      79  73  82 NE10      29.99S
SARASOTA       FAIR      80  71  74 N6        29.98F
VENICE         NOT AVBL

STATION/POSITION SKY/WX   TEMP    WIND        PRES    WAVE   SWELL
                          AIR SEA DIR/SP/G            HT/PER HT/PER
                          (F)     (DEG/KT/KT) (MB)    (FT/S) (FT/S)
27.3N   84.2W                 86                N/A     3/ 6
CLEARWATER BEACH           81 88   70/  8/ 11 1016.5F
MIDDLE TAMPA BAY                   80/ 13/ 15 1016.3F
VENICE                     79 85   40/  6/  8 1015.0F

$$
FLZ066-069-070-075>078-162-262-165-265-260700-
SOUTHWEST FLORIDA AND KEYS

CITY           SKY/WX    TMP DP  RH WIND       PRES   REMARKS
PUNTA GORDA    FAIR      77  74  90 NE5       30.00S
FT MYERS       FAIR      79  75  87 NE5       29.98S
SOUTHWEST INTL FAIR      80  74  81 CALM      29.98S
NAPLES         FAIR      80  77  90 N6        29.97S
MARCO ISLAND   FAIR     N/A N/A N/A NE7       29.97S
MARATHON       FAIR      85  78  80 NE5       29.92F HX  96
KEY WEST NAS   FAIR     N/A N/A N/A NE6       29.93F
KEY WEST INTL  TSTM      83  80  91 E7        29.93F HX  95

STATION/POSITION SKY/WX   TEMP    WIND        PRES    WAVE   SWELL
                          AIR SEA DIR/SP/G            HT/PER HT/PER
                          (F)     (DEG/KT/KT) (MB)    (FT/S) (FT/S)
NAPLES                        88              1014.9R
26.0N   85.6W              83 85   70/ 17/ 19 1013.9F   4/ 5   2/15
DRY TORTUGAS               85      90/ 12/ 13 1013.5F
SAND KEY                   84     120/  5/  5 1013.9F
LONG KEY                   85 89   60/ 11/ 12 1014.0R

$$
FLZ067-068-071>074-168-172>174-260700-
SOUTHEAST FLORIDA

CITY           SKY/WX    TMP DP  RH WIND       PRES   REMARKS
W PALM BEACH   MOCLDY    81  77  88 CALM      29.95F
FT LAUDER-EXEC FAIR      84  77  79 E6        29.94S
FT LAUDERDALE  MOCLDY    84  79  85 NE6       29.93S HX  96
POMPANO BEACH  FAIR      84  78  82 E7        29.94S HX  95
OPA LOCKA      FAIR      82  78  88 N6        29.95R
MIAMI          CLOUDY    83  78  85 N3        29.94S
WEST KENDALL   FAIR      79  78  97 NW6       29.94S
HOMESTEAD      FAIR      82  78  85 NE5       29.93S

STATION/POSITION SKY/WX   TEMP    WIND        PRES    WAVE   SWELL
                          AIR SEA DIR/SP/G            HT/PER HT/PER
                          (F)     (DEG/KT/KT) (MB)    (FT/S) (FT/S)
PORT EVERGLADES            85      60/  8/ 11 1013.6F
VIRGINIA KEY               85 89   70/  9/ 11 1014.0S
LAKE WORTH                 82 87   10/ 17/ 20 1014.4R
FOWEY ROCKS                84 86   70/ 10/ 11 1014.4R
SETTLEMENT POINT           85     110/ 10/ 12 1014.5F

$$





USA.gov is the U.S. government's official web portal to all federal, state and local government web resources and services.